Flag for Canada Weather past 2 weeks in Colchester County, Nova Scotia, Canada

Now
52 °F

Drizzle. Fog.


Feels Like: 47 °F
Forecast: 43 / 49 °F
Wind: 13 mph from Northwest

Location: Halifax International Airport

Current Time: Oct 25, 2014 at 1:46:23 AM

Latest Report: Oct 25, 2014 at 1:00 AM


Visibility: 0 mi

Pressure: 29.41 "Hg

Humidity: 100%

Dew point: 52 °F

Location of Colchester CountyLocation

Historic Weather in Colchester County — Graph

°F

Colchester County temperature yesterday

Maximum temperature yesterday: 59 °F (at 2:00 PM)
Minimum temperature yesterday: 52 °F (at 12:00 AM)
Average temperature yesterday: 55 °F

Past Weeks' High & Low Weather Summary

 TemperatureHumidityPressure
High77 °F (Oct 15, 3:00 PM)100% (Oct 12, 3:50 AM)30.32 "Hg (Oct 12, 3:50 AM)
Low37 °F (Oct 20, 6:52 AM)42% (Oct 13, 2:00 PM)29.41 "Hg (Oct 25, 12:00 AM)
Average53 °F85%29.96 "Hg
* Reported Midnight between Oct 9 and Oct 10 — Oct 25 12:52 AM, Colchester County, Weather by CustomWeather, © 2014

Note: Actual official high and low records may vary slightly from our data, if they occured in-between our weather recording intervals... More about our weather records

Advertising

Colchester County weather history for previous 24 hours

 ConditionsComfort  
Time TempWeatherWind HumidityBarometerVisibility
12:52 AM
Oct 25
54 °FFog.13 mph94%29.41 "Hg1 mi
12:00 AM54 °FFog.10 mph100%29.41 "Hg0 mi
11:00 PM
Oct 24
54 °FFog.9 mph100%29.41 "Hg0 mi
10:00 PM54 °FFog.13 mph100%29.42 "Hg0 mi
9:00 PM55 °FCool.12 mph94%29.43 "Hg1 mi
8:00 PM55 °FFog.5 mph100%29.43 "Hg3 mi
7:00 PM57 °FSprinkles. Fog.7 mph100%29.43 "Hg2 mi
6:00 PM57 °FSprinkles. Fog.7 mph94%29.44 "Hg2 mi
5:00 PM59 °FSprinkles. Fog.8 mph100%29.44 "Hg1 mi
4:51 PM59 °FSprinkles. Fog.7 mph100%29.44 "Hg1 mi
4:00 PM59 °FFog.7 mph100%29.45 "Hg0 mi
3:00 PM57 °FFog.8 mph100%29.47 "Hg0 mi
2:00 PM59 °FDrizzle. Fog.7 mph100%29.48 "Hg1 mi
1:00 PM57 °FDrizzle. Fog.5 mph100%29.52 "Hg1 mi
12:00 PM55 °FDrizzle. Fog.7 mph100%29.54 "Hg1 mi
11:00 AM55 °FDrizzle. Fog.8 mph100%29.55 "Hg1 mi
10:00 AM54 °FDrizzle. Fog.7 mph100%29.56 "Hg1 mi
9:47 AM54 °FFog.8 mph100%29.56 "Hg2 mi
9:00 AM54 °FLow clouds.10 mph94%29.57 "Hg8 mi
8:00 AM52 °FOvercast.9 mph100%29.59 "Hg7 mi
7:00 AM52 °FLow clouds.9 mph100%29.60 "Hg10 mi
6:00 AM54 °FSprinkles. Mostly cloudy.10 mph94%29.61 "Hg7 mi
5:51 AM54 °FSprinkles. Mostly cloudy.13 mph94%29.61 "Hg8 mi
5:00 AM54 °FSprinkles. Fog.16 mph94%29.60 "Hg5 mi
4:00 AM52 °FSprinkles. Fog.15 mph100%29.60 "Hg5 mi
3:00 AM52 °FRain showers. Fog.16 mph100%29.64 "Hg2 mi
2:51 AM52 °FRain showers. Fog.17 mph100%29.63 "Hg2 mi
2:00 AM52 °FSprinkles. Fog.13 mph94%29.67 "Hg5 mi
1:00 AM52 °FSprinkles. Mostly cloudy.16 mph94%29.71 "Hg10 mi
Weather by CustomWeather, © 2014

See weather overviewHow to use our weather pages